Location: Girdwood
(60.9430°N, 149.1660°W)
Time: 22:56:54
(UTC-08:00)

Amateur Radio Satellites - All Passes

Search period start: 01 September 2014 22:26
Search period end: 02 September 2014 22:26
Location: Girdwood, 60.9430°N, 149.1660°W

Satellite Date Start Highest point End Downlink Frequencies (MHz)
Time Altitude Azimuth
OPAL 01 Sep 22:54:07 22:56:18 13° 341° (NNW) 22:58:28 ?
Oscar 10/S400 01 Sep 22:55:42 23:21:16 33° 170° (S) 02:47:51 145.825 - 145.975 CW/USB, Beacon 145.810 USB
STRAND 1 01 Sep 23:02:23 23:06:43 29° 310° (NW) 23:11:03 ?
UKube-1 01 Sep 23:06:27 23:10:22 32° 264° (W) 23:14:19 145.840 MHz, 145.915 MHz
Oscar 11 01 Sep 23:09:39 23:13:49 43° 262° (W) 23:18:02 145.825 FM, Beacon 2401.500 USB
KITSAT 1 01 Sep 23:18:06 23:23:15 19° 102° (ESE) 23:28:24 435.175 FM
Sapphire 01 Sep 23:38:22 23:43:41 51° 17° (NNE) 23:49:00 437.095 MHz 1200 baud AX-25 AFSK
Saudisat 1A 01 Sep 23:40:05 23:43:34 23° 124° (SE) 23:47:04 436.775 MHz
FUNcube-1 01 Sep 23:41:56 23:46:03 48° 261° (W) 23:50:19 145.950 - 145.970 MHz USB
MaSat-1 01 Sep 23:48:42 23:52:20 22° 251° (WSW) 23:55:40 437.345 MHz
PCSat 02 Sep 00:07:46 00:13:10 60° 25° (NNE) 00:18:34 145.825 MHz
HO-68 02 Sep 00:12:49 00:17:14 17° 282° (WNW) 00:21:40 435.675 MHz FM
OPAL 02 Sep 00:32:32 00:33:15 10° 5° (N) 00:33:58 ?
STRAND 1 02 Sep 00:42:42 00:44:32 12° 333° (NNW) 00:46:22 ?
KITSAT 1 02 Sep 01:09:11 01:16:57 53° 126° (SE) 01:24:44 435.175 FM
Saudisat 1A 02 Sep 01:18:13 01:22:38 74° 145° (SE) 01:27:04 436.775 MHz
Sapphire 02 Sep 01:22:03 01:27:32 82° 221° (SW) 01:32:58 437.095 MHz 1200 baud AX-25 AFSK
PCSat 02 Sep 01:51:22 01:56:43 59° 228° (SW) 02:02:03 145.825 MHz
Oscar 19 02 Sep 01:57:05 01:59:34 13° 79° (ENE) 02:02:03 437.125 CW, 437.150 USB
OPAL 02 Sep 02:07:16 02:10:20 16° 29° (NNE) 02:13:25 ?
Oscar 16 02 Sep 02:31:31 02:35:36 23° 87° (E) 02:39:39 437.025 USB, Beacon 2401.1428
ITAMSAT 1 02 Sep 02:35:19 02:37:39 13° 79° (E) 02:39:59 435.822 SSB
Uribyol 2 02 Sep 02:44:08 02:47:12 16° 82° (E) 02:50:16 436.500 FM
Saudisat 1A 02 Sep 02:58:02 03:02:26 58° 349° (NNW) 03:06:49 436.775 MHz
KITSAT 1 02 Sep 03:04:02 03:12:10 79° 332° (NNW) 03:20:20 435.175 FM
AO-27 02 Sep 03:04:10 03:07:58 20° 86° (E) 03:11:46 436.795 MHz FM
Sapphire 02 Sep 03:05:53 03:10:23 27° 243° (WSW) 03:14:53 437.095 MHz 1200 baud AX-25 AFSK
JAS-1B 02 Sep 03:11:13 03:17:05 26° 82° (E) 03:22:15 435.800 - 435.900 CW/SSB
Oscar 19 02 Sep 03:35:02 03:40:10 53° 101° (E) 03:45:15 437.125 CW, 437.150 USB
PCSat 02 Sep 03:35:38 03:39:13 18° 251° (WSW) 03:42:47 145.825 MHz
AO-Echo 02 Sep 03:42:14 03:46:34 35° 95° (E) 03:50:52 ?
OPAL 02 Sep 03:43:21 03:48:05 38° 51° (NE) 03:52:53 ?
Gurwin Techsat 1B 02 Sep 03:46:35 03:50:44 23° 87° (E) 03:54:53 435.225 FM
STRAND 1 02 Sep 03:57:56 03:58:48 10° 22° (NNE) 03:59:39 ?
Oscar 16 02 Sep 04:10:27 04:15:42 87° 109° (ESE) 04:20:56 437.025 USB, Beacon 2401.1428
ITAMSAT 1 02 Sep 04:13:19 04:18:25 52° 101° (E) 04:23:29 435.822 SSB
Uribyol 2 02 Sep 04:22:36 04:27:47 62° 104° (ESE) 04:32:56 436.500 FM
SO-50 02 Sep 04:22:39 04:25:47 19° 119° (ESE) 04:28:58 436.795 FM
TMSAT-1 02 Sep 04:36:08 04:41:02 36° 95° (E) 04:45:55 436.925 FM
Uosat F 02 Sep 04:36:49 04:38:08 11° 77° (ENE) 04:39:28 435.120 FM
Saudisat 1A 02 Sep 04:38:07 04:42:30 58° 12° (NNE) 04:46:54 436.775 MHz
AO-27 02 Sep 04:43:07 04:48:21 79° 108° (ESE) 04:53:34 436.795 MHz FM
KITSAT 1 02 Sep 05:00:22 05:08:24 61° 359° (N) 05:16:26 435.175 FM
JAS-1B 02 Sep 05:01:37 05:09:02 87° 110° (ESE) 05:15:14 435.800 - 435.900 CW/SSB
Oscar 19 02 Sep 05:14:36 05:19:30 42° 303° (WNW) 05:24:22 437.125 CW, 437.150 USB
AO-7 02 Sep 05:17:36 05:24:38 29° 88° (E) 05:31:36 29.400 - 29.500 MHz
AO-Echo 02 Sep 05:21:01 05:25:38 54° 297° (WNW) 05:30:12 ?
OPAL 02 Sep 05:21:44 05:26:50 62° 253° (WSW) 05:32:01 ?
Gurwin Techsat 1B 02 Sep 05:26:08 05:31:30 87° 109° (ESE) 05:36:50 435.225 FM
STRAND 1 02 Sep 05:32:28 05:36:27 24° 45° (NE) 05:40:27 ?
Oscar 16 02 Sep 05:50:14 05:54:37 28° 311° (NW) 05:59:00 437.025 USB, Beacon 2401.1428
ITAMSAT 1 02 Sep 05:53:02 05:57:55 43° 303° (WNW) 06:02:48 435.822 SSB
SO-50 02 Sep 06:01:06 06:05:36 61° 141° (SE) 06:10:14 436.795 FM
Uribyol 2 02 Sep 06:02:22 06:07:07 37° 305° (NW) 06:11:52 436.500 FM
UOSAT-12 02 Sep 06:07:25 06:10:35 18° 118° (ESE) 06:13:46 437.025 FM, 437.400 FM
Uosat F 02 Sep 06:13:25 06:18:16 46° 100° (E) 06:23:05 435.120 FM
TMSAT-1 02 Sep 06:16:04 06:21:18 60° 296° (WNW) 06:26:30 436.925 FM
Saudisat 1A 02 Sep 06:17:51 06:22:17 72° 215° (SW) 06:26:42 436.775 MHz
AO-27 02 Sep 06:23:02 06:27:31 30° 309° (NW) 06:32:01 436.795 MHz FM
JAS-1B 02 Sep 06:52:25 06:59:03 35° 317° (NW) 07:04:45 435.800 - 435.900 CW/SSB
Oscar 19 02 Sep 06:54:42 06:57:45 16° 325° (NW) 07:00:47 437.125 CW, 437.150 USB
KITSAT 1 02 Sep 06:56:31 07:04:40 78° 27° (NNE) 07:12:47 435.175 FM
AO-Echo 02 Sep 07:00:36 07:03:35 17° 319° (NW) 07:06:33 ?
OPAL 02 Sep 07:03:43 07:06:47 16° 275° (W) 07:09:54 ?
Gurwin Techsat 1B 02 Sep 07:06:32 07:11:02 29° 311° (NW) 07:15:32 435.225 FM
Hamsat 02 Sep 07:08:43 07:12:21 25° 90° (E) 07:15:56 145.90 MHz
STRAND 1 02 Sep 07:09:57 07:15:03 77° 67° (ENE) 07:20:10 ?
AO-7 02 Sep 07:10:23 07:18:45 80° 113° (ESE) 07:27:04 29.400 - 29.500 MHz
Oscar 16 02 Sep 07:30:40 07:32:33 12° 334° (NNW) 07:34:25 437.025 USB, Beacon 2401.1428
ITAMSAT 1 02 Sep 07:33:17 07:36:21 16° 325° (NW) 07:39:25 435.822 SSB
SO-50 02 Sep 07:41:41 07:46:16 64° 344° (NNW) 07:50:59 436.795 FM
JAS-2 02 Sep 07:42:00 07:46:55 41° 97° (E) 07:52:03 435.800 - 435.900 CW/SSB, 435.910 FM
Uribyol 2 02 Sep 07:42:41 07:45:25 15° 328° (NNW) 07:48:09 436.500 FM
UOSAT-12 02 Sep 07:45:21 07:49:58 59° 140° (SE) 07:54:39 437.025 FM, 437.400 FM
RS-15 02 Sep 07:48:04 07:56:37 28° 105° (ESE) 08:05:07 29.354 - 29.394 USB, Beacon 29.352 USB
Uosat F 02 Sep 07:52:22 07:57:09 46° 301° (WNW) 08:01:54 435.120 FM
TMSAT-1 02 Sep 07:56:35 08:00:24 21° 319° (NW) 08:04:13 436.925 FM
Saudisat 1A 02 Sep 07:57:54 08:01:19 22° 237° (WSW) 08:04:44 436.775 MHz
AO-27 02 Sep 08:03:32 08:05:41 13° 333° (NNW) 08:07:51 436.795 MHz FM
JAS-1B 02 Sep 08:42:36 08:47:42 20° 344° (NNW) 08:52:18 435.800 - 435.900 CW/SSB
Hamsat 02 Sep 08:44:22 08:48:45 69° 291° (WNW) 08:53:04 145.90 MHz
Gurwin Techsat 1B 02 Sep 08:47:29 08:49:34 12° 334° (NNW) 08:51:39 435.225 FM
STRAND 1 02 Sep 08:50:29 08:54:48 27° 269° (W) 08:59:08 ?
KITSAT 1 02 Sep 08:52:07 08:59:57 55° 233° (SW) 09:07:44 435.175 FM
AO-7 02 Sep 09:03:27 09:11:12 46° 317° (NW) 09:18:56 29.400 - 29.500 MHz
SO-67 02 Sep 09:14:36 09:18:03 56° 102° (ESE) 09:21:28 435.3500 MHz FM
SO-50 02 Sep 09:22:44 09:27:21 57° 8° (N) 09:32:04 436.795 FM
UOSAT-12 02 Sep 09:25:29 09:30:12 66° 343° (NNW) 09:34:57 437.025 FM, 437.400 FM
JAS-2 02 Sep 09:27:16 09:32:18 51° 299° (WNW) 09:37:31 435.800 - 435.900 CW/SSB, 435.910 FM
Uosat F 02 Sep 09:31:55 09:34:57 16° 323° (NW) 09:37:59 435.120 FM
HO-68 02 Sep 09:37:12 09:42:27 21° 82° (E) 09:47:40 435.675 MHz FM
RS-15 02 Sep 09:56:12 10:06:57 66° 132° (SE) 10:17:45 29.354 - 29.394 USB, Beacon 29.352 USB
Hamsat 02 Sep 10:21:04 10:24:05 18° 313° (NW) 10:27:04 145.90 MHz
JAS-1B 02 Sep 10:30:39 10:35:47 19° 11° (NNE) 10:40:28 435.800 - 435.900 CW/SSB
UKube-1 02 Sep 10:44:09 10:47:42 24° 91° (E) 10:51:13 145.840 MHz, 145.915 MHz
Oscar 16 02 Sep 10:45:46 10:47:05 11° 23° (NNE) 10:48:23 437.025 USB, Beacon 2401.1428
Oscar 11 02 Sep 10:47:14 10:50:31 20° 88° (E) 10:53:47 145.825 FM, Beacon 2401.500 USB
SO-67 02 Sep 10:48:04 10:50:53 23° 302° (WNW) 10:53:41 435.3500 MHz FM
KITSAT 1 02 Sep 10:48:21 10:53:43 20° 257° (WSW) 10:59:04 435.175 FM
AO-7 02 Sep 10:55:49 11:02:22 27° 344° (NNW) 11:08:54 29.400 - 29.500 MHz
SO-50 02 Sep 11:03:29 11:08:13 84° 211° (SSW) 11:13:03 436.795 FM
UOSAT-12 02 Sep 11:06:10 11:10:52 57° 7° (N) 11:15:34 437.025 FM, 437.400 FM
JAS-2 02 Sep 11:13:10 11:16:30 18° 323° (NW) 11:19:53 435.800 - 435.900 CW/SSB, 435.910 FM
AO-27 02 Sep 11:19:29 11:20:35 11° 21° (NNE) 11:21:42 436.795 MHz FM
FUNcube-1 02 Sep 11:20:52 11:24:14 20° 87° (E) 11:27:38 145.950 - 145.970 MHz USB
HO-68 02 Sep 11:24:27 11:31:36 66° 106° (ESE) 11:38:44 435.675 MHz FM
Oscar 19 02 Sep 11:46:33 11:49:54 18° 38° (NE) 11:53:15 437.125 CW, 437.150 USB
AO-Echo 02 Sep 11:52:28 11:54:07 12° 32° (NNE) 11:55:46 ?
Gurwin Techsat 1B 02 Sep 12:03:38 12:05:17 11° 23° (NNE) 12:06:57 435.225 FM
ISS 02 Sep 12:07:31 12:08:17 11° 156° (SSE) 12:09:04 145.800 FM
RS-15 02 Sep 12:08:20 12:19:19 79° 343° (NNW) 12:30:28 29.354 - 29.394 USB, Beacon 29.352 USB
JAS-1B 02 Sep 12:17:04 12:24:16 30° 37° (NE) 12:30:35 435.800 - 435.900 CW/SSB
UKube-1 02 Sep 12:20:01 12:24:23 73° 292° (WNW) 12:28:43 145.840 MHz, 145.915 MHz
Oscar 16 02 Sep 12:20:45 12:24:54 25° 46° (NE) 12:29:03 437.025 USB, Beacon 2401.1428
Oscar 11 02 Sep 12:22:53 12:27:19 86° 289° (WNW) 12:31:42 145.825 FM, Beacon 2401.500 USB
ITAMSAT 1 02 Sep 12:25:39 12:29:02 18° 38° (NE) 12:32:26 435.822 SSB
Uribyol 2 02 Sep 12:34:24 12:38:04 20° 41° (NE) 12:41:44 436.500 FM
SO-50 02 Sep 12:44:18 12:48:24 30° 233° (SW) 12:52:34 436.795 FM
AO-7 02 Sep 12:46:34 12:52:57 26° 11° (N) 12:59:18 29.400 - 29.500 MHz
UOSAT-12 02 Sep 12:46:34 12:51:22 88° 210° (SSW) 12:56:07 437.025 FM, 437.400 FM
TMSAT-1 02 Sep 12:51:29 12:54:17 15° 32° (NNE) 12:57:04 436.925 FM
AO-27 02 Sep 12:54:29 12:58:33 24° 45° (NE) 13:02:37 436.795 MHz FM
FUNcube-1 02 Sep 12:56:43 13:01:15 90° 287° (WNW) 13:05:51 145.950 - 145.970 MHz USB
HO-68 02 Sep 13:12:26 13:19:13 48° 309° (NW) 13:26:00 435.675 MHz FM
Oscar 19 02 Sep 13:23:17 13:28:16 49° 60° (ENE) 13:33:18 437.125 CW, 437.150 USB
AO-Echo 02 Sep 13:27:25 13:31:42 32° 54° (NE) 13:35:55 ?
Gurwin Techsat 1B 02 Sep 13:39:25 13:43:43 26° 47° (NE) 13:48:02 435.225 FM
ISS 02 Sep 13:41:51 13:44:05 17° 175° (S) 13:46:19 145.800 FM
MaSat-1 02 Sep 13:45:28 13:49:39 26° 112° (ESE) 13:53:51 437.345 MHz
UKube-1 02 Sep 13:56:53 14:00:00 20° 314° (NW) 14:03:06 145.840 MHz, 145.915 MHz
Oscar 16 02 Sep 13:58:29 14:03:40 80° 68° (ENE) 14:08:55 437.025 USB, Beacon 2401.1428
Oscar 11 02 Sep 13:59:40 14:03:01 22° 310° (NW) 14:06:21 145.825 FM, Beacon 2401.500 USB
ITAMSAT 1 02 Sep 14:02:36 14:07:36 51° 60° (ENE) 14:12:36 435.822 SSB
JAS-1B 02 Sep 14:04:45 14:13:48 64° 60° (ENE) 14:21:31 435.800 - 435.900 CW/SSB
Uribyol 2 02 Sep 14:11:40 14:16:44 59° 63° (ENE) 14:21:50 436.500 FM
RS-15 02 Sep 14:21:39 14:32:39 77° 14° (NNE) 14:43:54 29.354 - 29.394 USB, Beacon 29.352 USB
Uosat F 02 Sep 14:22:40 14:25:35 16° 35° (NE) 14:28:30 435.120 FM
UOSAT-12 02 Sep 14:26:58 14:31:10 31° 232° (SW) 14:35:19 437.025 FM, 437.400 FM
TMSAT-1 02 Sep 14:28:09 14:32:58 37° 55° (NE) 14:37:49 436.925 FM
AO-27 02 Sep 14:32:17 14:37:27 75° 67° (ENE) 14:42:39 436.795 MHz FM
FUNcube-1 02 Sep 14:33:40 14:37:13 23° 309° (NW) 14:40:48 145.950 - 145.970 MHz USB
AO-7 02 Sep 14:36:24 14:43:54 40° 37° (NE) 14:51:24 29.400 - 29.500 MHz
HO-68 02 Sep 15:00:13 15:05:35 24° 334° (NNW) 15:10:57 435.675 MHz FM
Oscar 19 02 Sep 15:02:47 15:07:45 44° 262° (W) 15:12:46 437.125 CW, 437.150 USB
AO-Echo 02 Sep 15:05:23 15:10:17 67° 255° (WSW) 15:15:04 ?
Gurwin Techsat 1B 02 Sep 15:17:49 15:23:08 82° 69° (ENE) 15:28:29 435.225 FM
ISS 02 Sep 15:18:05 15:19:57 14° 195° (SSW) 15:21:49 145.800 FM
MaSat-1 02 Sep 15:21:01 15:26:11 84° 133° (SE) 15:31:17 437.345 MHz
Oscar 16 02 Sep 15:39:17 15:43:38 27° 270° (W) 15:48:01 437.025 USB, Beacon 2401.1428
ITAMSAT 1 02 Sep 15:42:21 15:47:15 43° 262° (W) 15:52:12 435.822 SSB
Uribyol 2 02 Sep 15:51:46 15:56:31 36° 265° (W) 16:01:19 436.500 FM
JAS-1B 02 Sep 15:55:30 16:04:36 54° 261° (W) 16:12:27 435.800 - 435.900 CW/SSB
Uosat F 02 Sep 15:58:38 16:03:21 43° 58° (ENE) 16:08:05 435.120 FM
TMSAT-1 02 Sep 16:07:29 16:12:44 64° 256° (WSW) 16:18:02 436.925 FM
AO-27 02 Sep 16:13:05 16:17:31 28° 269° (W) 16:21:58 436.795 MHz FM
JAS-2 02 Sep 16:22:05 16:25:54 20° 41° (NE) 16:29:36 435.800 - 435.900 CW/SSB, 435.910 FM
AO-7 02 Sep 16:27:41 16:36:02 85° 62° (ENE) 16:44:24 29.400 - 29.500 MHz
RS-15 02 Sep 16:34:21 16:45:13 71° 224° (SW) 16:56:25 29.354 - 29.394 USB, Beacon 29.352 USB
Hamsat 02 Sep 16:37:51 16:40:37 17° 45° (NE) 16:43:23 145.90 MHz
PCSat 02 Sep 16:45:44 16:48:27 14° 106° (ESE) 16:51:10 145.825 MHz
HO-68 02 Sep 16:46:43 16:51:10 18° 0° (N) 16:55:36 435.675 MHz FM
AO-Echo 02 Sep 16:47:03 16:50:00 16° 277° (W) 16:52:54 ?
Oscar 19 02 Sep 16:47:11 16:48:31 11° 284° (WNW) 16:49:52 437.125 CW, 437.150 USB
MaSat-1 02 Sep 16:58:44 17:03:39 42° 335° (NNW) 17:08:24 437.345 MHz
Gurwin Techsat 1B 02 Sep 16:59:19 17:03:45 26° 271° (W) 17:08:12 435.225 FM
OPAL 02 Sep 17:22:00 17:25:24 17° 86° (E) 17:28:47 ?
ITAMSAT 1 02 Sep 17:27:26 17:28:13 10° 284° (WNW) 17:29:00 435.822 SSB
Uosat F 02 Sep 17:37:19 17:42:10 49° 259° (W) 17:47:04 435.120 FM
TMSAT-1 02 Sep 17:50:29 17:53:46 16° 279° (W) 17:57:03 436.925 FM
JAS-1B 02 Sep 17:50:59 17:56:57 19° 284° (WNW) 18:02:26 435.800 - 435.900 CW/SSB
Sapphire 02 Sep 17:56:59 18:01:47 33° 120° (ESE) 18:06:37 437.095 MHz 1200 baud AX-25 AFSK
JAS-2 02 Sep 18:04:45 18:10:16 61° 64° (ENE) 18:15:26 435.800 - 435.900 CW/SSB, 435.910 FM
Hamsat 02 Sep 18:11:33 18:15:51 60° 67° (ENE) 18:20:11 145.90 MHz
AO-7 02 Sep 18:22:12 18:29:45 37° 266° (W) 18:37:21 29.400 - 29.500 MHz
SO-67 02 Sep 18:25:30 18:27:56 18° 54° (NE) 18:30:22 435.3500 MHz FM
PCSat 02 Sep 18:25:31 18:30:43 49° 128° (SE) 18:35:57 145.825 MHz
HO-68 02 Sep 18:31:22 18:36:45 24° 26° (NNE) 18:42:08 435.675 MHz FM
MaSat-1 02 Sep 18:37:09 18:41:42 31° 359° (N) 18:46:01 437.345 MHz
RS-15 02 Sep 18:46:49 18:55:53 32° 252° (WSW) 19:05:12 29.354 - 29.394 USB, Beacon 29.352 USB
OPAL 02 Sep 19:00:03 19:05:17 66° 108° (ESE) 19:10:29 ?
STRAND 1 02 Sep 19:11:35 19:13:52 13° 79° (E) 19:16:08 ?
Uosat F 02 Sep 19:20:25 19:22:14 12° 282° (WNW) 19:24:03 435.120 FM
Sapphire 02 Sep 19:39:23 19:44:50 86° 323° (NW) 19:50:19 437.095 MHz 1200 baud AX-25 AFSK
Hamsat 02 Sep 19:48:21 19:52:09 29° 268° (W) 19:55:59 145.90 MHz
JAS-2 02 Sep 19:50:39 19:55:47 35° 265° (W) 20:00:37 435.800 - 435.900 CW/SSB, 435.910 FM
SO-67 02 Sep 19:57:06 20:00:36 82° 255° (WSW) 20:04:06 435.3500 MHz FM
PCSat 02 Sep 20:08:40 20:14:06 68° 331° (NNW) 20:19:33 145.825 MHz
UKube-1 02 Sep 20:14:49 20:17:54 19° 46° (NE) 20:20:59 145.840 MHz, 145.915 MHz
MaSat-1 02 Sep 20:15:01 20:19:47 40° 23° (NNE) 20:24:08 437.345 MHz
HO-68 02 Sep 20:16:21 20:23:07 49° 51° (NE) 20:29:56 435.675 MHz FM
Oscar 11 02 Sep 20:18:02 20:20:36 16° 43° (NE) 20:23:10 145.825 FM, Beacon 2401.500 USB
AO-7 02 Sep 20:23:38 20:25:29 11° 293° (WNW) 20:27:21 29.400 - 29.500 MHz
OPAL 02 Sep 20:39:13 20:43:59 37° 310° (NW) 20:48:45 ?
STRAND 1 02 Sep 20:49:17 20:54:18 52° 101° (E) 20:59:17 ?
FUNcube-1 02 Sep 20:53:11 20:55:36 15° 42° (NE) 20:58:03 145.950 - 145.970 MHz USB
Sapphire 02 Sep 21:23:32 21:28:48 48° 348° (NNW) 21:34:05 437.095 MHz 1200 baud AX-25 AFSK
SO-67 02 Sep 21:32:34 21:34:15 13° 275° (W) 21:35:58 435.3500 MHz FM
UKube-1 02 Sep 21:49:11 21:53:31 72° 68° (ENE) 21:57:52 145.840 MHz, 145.915 MHz
Oscar 11 02 Sep 21:51:45 21:55:59 53° 65° (ENE) 22:00:16 145.825 FM, Beacon 2401.500 USB
MaSat-1 02 Sep 21:52:18 21:57:16 85° 227° (SW) 22:01:40 437.345 MHz
PCSat 02 Sep 21:53:01 21:58:14 45° 356° (N) 22:03:29 145.825 MHz
HO-68 02 Sep 22:03:40 22:10:46 65° 254° (WSW) 22:17:55 435.675 MHz FM
OPAL 02 Sep 22:18:41 22:21:42 16° 332° (NNW) 22:24:44 ?
